Weather History for Paganella, Italy

Change the Weather History Date:

Friday, March 28, 2014

  Actual Average Record
Temperature  
Mean Temperature 28 °F -  
Max Temperature 32 °F 35 °F 48 °F (2012)
Min Temperature 23 °F 26 °F 16 °F (2013)
Degree Days  
Heating Degree Days 38    
Moisture  
Dew Point 20 °F    
Average Humidity 65    
Maximum Humidity 80    
Minimum Humidity 44    
Precipitation  
Precipitation 0.00 in 0.05 in - ()
Sea Level Pressure  
Sea Level Pressure 29.93 in    
Wind  
Wind Speed 7 mph ()    
Max Wind Speed 15 mph    
Max Gust Speed -    
Visibility 14.2 miles    
Events      
Averages and records for this station are not official NWS values.
T = Trace of Precipitation, MM = Missing Value Source: Averaged Metar Reports

Daily Weather History Graph

Daily Weather History Graph

Search for Another Location

Airport:

Trip Planner

Search our weather history database for the weather conditions in past years. The results will help you decide how hot, cold, wet, or windy it might be!

Date:

Astronomy

Mar. 28, 2014 Rise Set
Actual Time 6:03 AM CET 6:38 PM CET
Civil Twilight 5:33 AM CET 7:09 PM CET
Nautical Twilight 4:58 AM CET 7:44 PM CET
Astronomical Twilight 4:21 AM CET 8:22 PM CET
Moon 4:32 AM CET (3/28) 4:09 PM CET (3/28)
Length of Visible Light 13h 35m
Length of Day
12h 34m
Waning Crescent, 7% of the Moon is Illuminated
Mar 28
Waning Crescent
Mar 30
New
Apr 7
First Quarter
Apr 15
Full
Apr 22
Last Quarter

Hourly Weather History & Observations

Time (CET) Temp. Windchill Dew Point Humidity Pressure Visibility Wind Dir Wind Speed Gust Speed Precip Events Conditions
12:00 AM 25 °F - 18 °F 63%  in 25 mi NNE 8.1 mph - -   Partly Cloudy
12:55 AM 24.8 °F 15.3 °F 17.6 °F 74% 29.77 in - NNE 9.2 mph - N/A   Clear
1:00 AM 24 °F - 17 °F 66%  in 16 mi NNE 9.2 mph - -   Mostly Cloudy
1:55 AM 24.8 °F 15.3 °F 17.6 °F 74% 29.77 in - NNE 9.2 mph - N/A   Clear
2:00 AM 24 °F - 17 °F 65%  in 19 mi NNE 9.2 mph - -   Partly Cloudy
2:55 AM 24.8 °F 15.3 °F 17.6 °F 74% 29.77 in - NNE 9.2 mph - N/A   Clear
3:00 AM 24 °F - 17 °F 65%  in 19 mi NNE 9.2 mph - -   Partly Cloudy
3:55 AM 23.0 °F 15.8 °F 15.8 °F 74% 29.80 in - North 5.8 mph - N/A   Clear
4:00 AM 24 °F - 16 °F 62%  in 19 mi North 5.8 mph - -  
4:55 AM 23.0 °F 15.8 °F 15.8 °F 74% 29.80 in - North 5.8 mph - N/A   Clear
5:00 AM 24 °F - 16 °F 61%  in 19 mi North 5.8 mph - -  
5:55 AM 23.0 °F 15.8 °F 15.8 °F 74% 29.83 in - North 5.8 mph - N/A   Clear
6:00 AM 23 °F - 15 °F 61%  in 19 mi North 5.8 mph - -  
6:55 AM 23.0 °F 15.8 °F 15.8 °F 74% 29.83 in - North 5.8 mph - N/A   Clear
7:00 AM 24 °F - 15 °F 59%  in 19 mi North 5.8 mph - -  
7:55 AM 26.6 °F 20.0 °F 21.2 °F 80% 29.86 in - North 5.8 mph - N/A   Clear
8:00 AM 27 °F - 21 °F 70%  in 19 mi North 5.8 mph - -  
8:55 AM 28.4 °F 22.2 °F 19.4 °F 69% 29.89 in - SW 5.8 mph - N/A   Clear
9:00 AM 28 °F - 20 °F 61%  in 19 mi SW 5.8 mph - -  
9:55 AM 28.4 °F 22.2 °F 19.4 °F 69% 29.92 in - SW 5.8 mph - N/A   Clear
10:00 AM 28 °F - 20 °F 62%  in 19 mi SW 5.8 mph - -  
10:55 AM 28.4 °F 21.2 °F 21.2 °F 74% 29.92 in 6.2 mi SW 6.9 mph - N/A   Partly Cloudy
11:00 AM 29 °F - 22 °F 64%  in 31 mi SW 6.9 mph - -   Scattered Clouds
11:55 AM 30.2 °F 24.3 °F 21.2 °F 69% 29.95 in 6.2 mi SSW 5.8 mph - N/A   Partly Cloudy
12:00 PM 30 °F - 22 °F 62%  in 37 mi SSW 5.8 mph - -   Scattered Clouds
12:55 PM 30.2 °F 23.4 °F 21.2 °F 69% 29.95 in 6.2 mi SW 6.9 mph - N/A   Partly Cloudy
1:00 PM 30 °F - 22 °F 62%  in 37 mi SW 6.9 mph - -   Scattered Clouds
1:55 PM 32.0 °F 24.8 °F 23.0 °F 69% 29.95 in 6.2 mi SW 8.1 mph - N/A   Partly Cloudy
2:00 PM 31 °F - 23 °F 61%  in 37 mi SW 8.1 mph - -   Scattered Clouds
2:55 PM 32.0 °F 24.8 °F 23.0 °F 69% 29.98 in 6.2 mi SW 8.1 mph - N/A   Partly Cloudy
3:00 PM 32 °F - 23 °F 57%  in 31 mi SW 8.1 mph - -   Scattered Clouds
3:55 PM 32.0 °F 23.6 °F 23.0 °F 69% 29.98 in 6.2 mi SSW 10.4 mph - N/A   Partly Cloudy
4:00 PM 32 °F - 24 °F 61%  in 31 mi SSW 10.4 mph - -   Scattered Clouds
4:55 PM 32.0 °F 24.8 °F 21.2 °F 64% 29.98 in 6.2 mi SSW 8.1 mph - N/A   Partly Cloudy
5:00 PM 32 °F - 20 °F 50%  in 31 mi SSW 8.1 mph - -   Scattered Clouds
5:55 PM 32.0 °F 23.6 °F 19.4 °F 60% 30.01 in - SSW 10.4 mph - N/A   Clear
6:00 PM 32 °F - 19 °F 46%  in 31 mi SSW 10.4 mph - -  
6:55 PM 30.2 °F 21.9 °F 17.6 °F 60% 30.01 in - SSW 9.2 mph - N/A   Clear
7:00 PM 31 °F - 17 °F 44%  in 19 mi SSW 9.2 mph - -  
7:55 PM 30.2 °F 22.6 °F 17.6 °F 60% 30.04 in - SSW 8.1 mph - N/A   Clear
8:00 PM 30 °F - 18 °F 49%  in 19 mi SSW 8.1 mph - -  
8:55 PM 30.2 °F 21.9 °F 19.4 °F 64% 30.06 in - SSW 9.2 mph - N/A   Clear
9:00 PM 30 °F - 20 °F 53%  in 16 mi SSW 9.2 mph - -  
9:55 PM 30.2 °F 22.6 °F 23.0 °F 75% 30.09 in - SSW 8.1 mph - N/A   Clear
10:00 PM 29 °F - 22 °F 67%  in 16 mi SSW 8.1 mph - -  
10:55 PM 28.4 °F 18.0 °F 23.0 °F 80% 30.09 in - South 12.7 mph - N/A   Clear
11:00 PM 29 °F - 23 °F 69%  in 12 mi South 12.7 mph - -  
11:55 PM 28.4 °F 17.0 °F 23.0 °F 80% 30.12 in - South 15.0 mph - N/A   Clear